User: anonymous   Login
Location: Unspecified
(0.0000°N, 0.0000°E)
Time: 05:31:51
(UTC+01:00)
Language:

Meteor 2-8 Rocket - Orbit

View from above orbital plane
View from above orbital plane
View from above satellite
View from above satellite

Ground track
Ground track

The orbit data is extracted from the following two-line orbital elements,

1 13114U 82025B   17345.90395574  .00000011  00000-0 -31675-5 0  9999
2 13114  82.5415  61.3588 0014793  16.3709  80.5330 13.84663583805007
Epoch (UTC): 11 December 2017 21:41:41
Eccentricity: 0.0014793
inclination: 82.5415°
perigee height: 936 km
apogee height: 958 km
right ascension of ascending node: 61.3588°
argument of perigee: 16.3709°
revolutions per day: 13.84663583
mean anomaly at epoch: 80.5330°
orbit number at epoch: 80500

The dashed part of the orbit path shows where the satellite is in the earth's shadow,  

DLR